Tucson, Arizona, United States (85701)
Lat: 32.22N, Lon: 110.93W
Wx Zone: AZZ504
Local Info
Past Weather Observations for Tuesday, September 30, 2014

NOTE: This archive is for the closest National Weather Service station to Tucson. Information may differ from the station used for current weather conditions.

Click here for Long-term Archive

Time Weather Temperature Dewpoint Humidity Pressure Winds Precip Visibility
23:58
Clear
66°F / 19°C 41°F / 5°C 40% 29.86 in
(1011 mb)
SE 5.8 mph
(SE 9 kph)
- 10SM
22:58
Clear
66°F / 19°C 39°F / 4°C 37% 29.86 in
(1011 mb)
SE 9.2 mph
(SE 15 kph)
- 10SM
21:58
Clear
68°F / 20°C 37°F / 3°C 33% 29.86 in
(1011 mb)
SE 4.6 mph
(SE 7 kph)
- 10SM
20:58
Clear
72°F / 22°C 39°F / 4°C 31% 29.86 in
(1011 mb)
W 2.3 mph
(W 4 kph)
- 10SM
19:58
Clear
75°F / 24°C 37°F / 3°C 25% 29.86 in
(1011 mb)
NW 4.6 mph
(NW 7 kph)
- 10SM
18:58
Clear
77°F / 25°C 37°F / 3°C 24% 29.83 in
(1010 mb)
NNW 5.8 mph
(NNW 9 kph)
- 10SM
17:56
Clear
81°F / 27°C 36°F / 2°C 20% 29.83 in
(1010 mb)
NNW 9.2 mph
(NNW 15 kph)
- 10SM
17:55
Clear
81°F / 27°C 36°F / 2°C 20% 29.83 in
(1010 mb)
Calm - SM
15:55
Clear
86°F / 30°C 34°F / 1°C 15% 29.83 in
(1010 mb)
N 10.4 mph
(N 17 kph)
- 10SM
14:58
Clear
86°F / 30°C 37°F / 3°C 18% 29.83 in
(1010 mb)
Variable 4.6 mph
(Variable 7 kph)
- 10SM
13:58
Clear
84°F / 29°C 34°F / 1°C 16% 29.86 in
(1011 mb)
NW 5.8 mph
(NW 9 kph)
- 10SM
12:58
Clear
82°F / 28°C 32°F / 0°C 16% 29.89 in
(1012 mb)
Variable 2.3 mph
(Variable 4 kph)
- 10SM
11:58
Clear
81°F / 27°C 37°F / 3°C 21% 29.92 in
(1013 mb)
SW 3.5 mph
(SW 6 kph)
- 10SM
10:58
Clear
79°F / 26°C 37°F / 3°C 23% 29.92 in
(1013 mb)
Calm - 10SM
09:58
Clear
75°F / 24°C 43°F / 6°C 31% 29.95 in
(1014 mb)
SE 4.6 mph
(SE 7 kph)
- 10SM
08:58
Clear
72°F / 22°C 46°F / 8°C 41% 29.95 in
(1014 mb)
SE 4.6 mph
(SE 7 kph)
- 10SM
07:58
Clear
66°F / 19°C 46°F / 8°C 49% 29.95 in
(1014 mb)
SSE 6.9 mph
(SSE 11 kph)
- 10SM
06:58
Clear
59°F / 15°C 43°F / 6°C 55% 29.95 in
(1014 mb)
SE 9.2 mph
(SE 15 kph)
- 10SM
05:58
Clear
59°F / 15°C 45°F / 7°C 59% 29.95 in
(1014 mb)
SE 5.8 mph
(SE 9 kph)
- 10SM
04:58
Clear
59°F / 15°C 45°F / 7°C 59% 29.92 in
(1013 mb)
SE 6.9 mph
(SE 11 kph)
- 10SM
03:58
Clear
61°F / 16°C 45°F / 7°C 55% 29.95 in
(1014 mb)
SSE 5.8 mph
(SSE 9 kph)
- 10SM
02:58
Clear
61°F / 16°C 43°F / 6°C 52% 29.95 in
(1014 mb)
SE 8.1 mph
(SE 13 kph)
- 10SM
01:58
Clear
63°F / 17°C 45°F / 7°C 52% 29.95 in
(1014 mb)
SE 6.9 mph
(SE 11 kph)
- 10SM
00:58
Clear
63°F / 17°C 45°F / 7°C 52% 29.95 in
(1014 mb)
SE 5.8 mph
(SE 9 kph)
- 10SM
Time Weather Temperature Dewpoint Humidity Pressure Winds Precip Visibility


Weather for websites

WeatherForYou.com, LLC is not responsible for any damages or problems caused by this service. Current weather conditions are obtained from the closest station including government and personal stations which may have varying degrees of accuracy. Weather forecasts are derived from the NOAA NDFD. Like all things, this site belongs to Jesus Christ... He just trusts me to maintain it. If you have any questions or comments email webmaster@weatherforyou.com

Copyright © 2014, WeatherForYou.com LLC. All rights reserved.